Wind_Speed
29 26 27 31 35 44 39 37 37 36 33 28 26 24 17 16 24 29 29 22 20 17 18 15 11 9 11 11 14 15 16 18 22 25 19 17 21 27 27 26 30 25 21
26 26 29 28 27 33 43 44 38 37 39 35 31 28 21 27 27 31 32 26 20 22 20 18 15 15 14 15 14 14 16 16 22 26 28 26 29 35 37 35 31 29 28
31 32 31 26 26 25 35 42 43 40 38 36 32 29 28 31 34 29 24 24 24 23 24 21 20 20 19 20 20 24 24 29 30 26 24 27 31 38 40 40 34 32 32
34 33 35 29 28 24 28 35 36 37 36 37 38 36 35 34 31 27 28 29 24 24 26 23 26 29 28 27 27 29 32 38 32 31 32 31 33 36 37 41 42 43 39
37 37 36 37 33 33 27 25 37 36 36 36 37 38 35 33 29 28 29 31 30 24 29 29 30 29 29 33 34 35 40 36 27 31 33 35 37 36 37 38 40 43 42
41 37 35 36 35 35 33 30 29 30 36 37 35 33 39 36 34 31 30 32 34 32 31 33 33 35 37 37 38 38 38 28 29 27 26 25 25 27 35 38 40 43 44
43 48 42 39 40 39 39 33 31 30 28 33 39 37 34 32 33 31 31 31 34 34 35 36 36 37 35 39 39 37 30 21 9 10 13 18 26 29 33 36 40 43 47
51 51 49 43 42 44 39 38 34 34 30 27 28 34 36 35 33 33 33 34 36 37 37 40 42 45 45 42 39 31 22 8 8 6 12 22 25 28 27 33 44 52 53
46 46 54 57 48 42 41 40 40 35 34 32 31 32 33 34 30 31 34 35 37 37 39 41 45 47 41 36 33 32 24 13 13 11 12 14 24 31 34 35 37 43 48
52 52 47 52 55 51 46 45 45 43 39 39 41 42 40 42 46 46 46 46 46 46 49 50 51 43 40 37 29 25 29 21 12 13 19 22 21 31 32 36 41 44 41
58 54 49 47 44 44 40 37 42 44 45 45 44 44 46 51 51 52 53 54 50 50 50 47 41 35 29 25 27 27 26 27 25 22 25 23 25 27 32 36 44 46 38
61 59 57 52 43 42 42 36 18 28 37 39 41 41 45 48 53 51 52 46 45 46 42 41 37 35 31 28 34 33 27 30 25 28 23 22 31 31 36 40 42 42 39
51 53 54 57 58 51 47 35 27 22 26 30 32 32 31 28 30 30 34 36 37 36 34 35 38 36 33 31 39 36 35 32 25 23 23 22 24 36 34 34 35 39 40
43 47 54 53 55 56 57 50 37 27 29 47 43 38 38 36 32 32 31 32 32 34 38 42 44 43 37 41 38 38 35 36 28 25 27 23 31 38 38 40 36 39 36
49 46 45 50 53 53 53 56 52 43 40 50 67 48 47 46 42 36 32 36 37 38 38 41 44 38 38 44 43 40 34 35 34 29 31 31 37 44 43 48 44 47 43
57 54 50 47 49 57 54 55 55 55 61 56 49 44 49 50 48 45 35 36 38 38 36 39 34 34 38 46 44 42 34 35 36 34 36 37 42 45 47 52 50 45 43
63 61 57 53 49 50 56 57 60 67 72 78 46 53 57 52 58 56 45 44 50 44 37 39 34 37 45 46 43 42 38 35 34 37 41 44 46 49 52 54 53 54 44
60 67 64 60 57 52 49 58 64 70 79 77 73 59 52 58 60 54 46 45 47 44 40 40 40 44 49 47 47 39 42 40 41 45 48 49 53 55 57 60 61 56 49
63 61 68 68 63 60 56 49 62 70 78 79 75 73 68 50 51 61 60 55 54 48 48 44 44 48 49 47 48 48 47 47 47 52 55 57 54 53 59 63 61 60 53
65 65 64 66 69 67 63 58 58 62 72 79 80 77 74 65 55 56 57 60 58 55 52 49 48 52 51 54 58 58 57 57 57 59 60 61 58 64 66 67 62 59 58
63 66 66 65 63 69 70 66 62 64 63 71 78 75 77 72 70 67 65 66 68 61 54 52 52 54 52 54 62 63 60 61 61 59 61 64 69 69 68 64 64 69 61
59 63 67 65 65 64 67 71 71 71 69 67 70 74 71 70 77 80 74 74 68 68 70 62 58 58 60 55 55 54 56 55 57 56 56 57 58 59 63 65 67 69 71
55 57 60 64 65 65 65 64 73 74 73 73 71 73 75 72 70 76 82 83 81 76 72 73 72 69 68 62 60 60 57 56 56 55 57 58 61 63 63 67 72 73 75
48 52 53 54 60 63 62 64 65 66 69 71 71 73 73 70 72 70 71 76 83 82 76 71 73 71 70 70 72 70 68 65 68 66 62 61 62 64 68 74 76 73 74
34 40 47 51 52 53 54 56 53 59 65 66 68 71 71 72 72 72 70 67 64 70 75 75 70 70 72 74 73 74 73 71 70 70 64 64 65 68 70 73 77 78 75
36 33 34 39 44 48 48 49 47 53 56 57 62 70 71 70 72 75 70 70 68 65 65 68 67 66 67 70 73 72 71 67 62 58 60 65 69 70 73 77 76 77 81
Wind_Direction
231 230 232 238 234 217 215 231 236 237 240 232 248 257 256 255 248 259 265 270 269 227 234 231 257 270 266 260 273 284 275 267 261 250 247 247 235 260 276 284 281 277 285
224 225 232 226 234 238 232 222 232 239 236 239 250 252 235 237 246 253 258 262 239 232 239 240 260 250 265 281 291 296 292 286 275 275 270 268 259 261 272 276 280 269 271
220 221 225 228 237 249 236 230 230 233 240 239 240 244 234 231 254 257 250 241 236 236 240 252 252 251 256 271 288 302 296 301 289 279 278 277 275 273 276 275 271 271 267
226 228 230 228 234 241 246 236 234 235 235 242 243 244 243 244 252 252 243 236 234 244 245 245 258 261 273 278 286 293 300 305 293 285 283 283 292 287 283 275 272 269 267
226 240 234 229 230 233 237 235 228 232 235 237 243 243 243 245 247 248 241 236 234 242 253 252 253 264 277 282 287 295 307 303 289 291 289 291 293 288 288 283 279 277 278
228 228 232 231 231 234 236 234 236 239 240 237 235 243 240 241 246 249 249 248 244 251 259 264 261 267 274 277 285 294 310 299 295 292 294 300 299 298 293 286 281 279 278
236 233 236 239 234 232 235 237 240 238 235 238 236 240 242 244 249 250 249 254 254 259 265 271 272 278 281 283 284 291 296 296 298 324 329 348 340 303 293 290 283 274 267
237 233 235 234 238 235 236 237 244 246 246 242 245 235 248 250 258 260 256 258 257 264 269 274 277 281 280 281 277 284 270 233 273 291 316 341 340 345 332 305 289 280 273
242 241 235 234 238 240 242 239 240 245 247 248 255 257 257 268 269 266 262 260 259 262 269 274 276 277 278 277 272 276 240 234 241 290 303 322 333 334 340 342 332 314 288
241 240 239 241 240 244 244 244 243 247 251 254 258 262 269 270 280 279 277 273 270 270 273 278 278 272 274 271 260 239 225 233 249 280 278 309 324 341 339 347 345 334 310
241 240 241 241 238 239 239 246 248 248 254 260 268 269 270 275 278 276 274 277 273 276 274 273 273 269 267 253 230 214 222 233 249 270 271 304 320 333 328 340 342 338 331
237 241 241 237 235 234 233 232 274 273 263 265 273 276 276 276 277 274 272 272 272 273 274 271 274 270 251 255 218 215 226 230 247 256 299 318 326 318 321 338 343 343 340
241 234 236 241 240 235 236 230 226 261 296 287 287 279 281 285 282 278 276 274 270 273 272 274 271 264 254 226 217 222 226 236 256 267 302 321 334 338 338 338 340 347 355
242 241 235 232 233 235 235 228 202 191 245 282 288 283 287 290 294 286 281 269 273 279 278 280 274 263 243 213 218 224 233 243 255 293 312 314 327 331 334 339 339 342 345
240 240 240 236 231 232 228 229 216 198 193 238 252 260 267 269 274 272 271 268 272 279 284 284 276 260 243 213 221 226 241 244 263 299 310 318 324 329 329 328 338 336 331
235 238 238 237 232 230 227 223 221 205 208 209 214 225 240 244 254 256 249 253 265 269 277 287 266 254 220 213 220 231 251 253 261 297 306 311 315 315 318 326 325 335 329
231 234 235 236 235 231 227 221 218 214 218 217 226 218 226 233 240 245 255 259 252 259 271 282 256 231 217 221 229 238 248 263 277 293 304 311 308 311 314 315 319 321 325
231 230 232 232 233 233 229 222 221 221 221 225 228 227 232 235 233 234 244 245 256 260 264 273 255 224 224 228 233 257 250 270 283 292 297 301 304 305 306 312 313 312 318
231 231 229 230 230 231 233 225 225 226 228 226 229 231 231 236 233 231 233 244 252 257 260 266 249 226 229 238 245 253 265 270 279 288 290 293 296 297 301 303 305 309 309
233 231 230 229 229 231 230 231 229 229 232 230 233 235 233 233 233 233 231 236 248 253 256 256 250 240 241 251 256 257 262 269 278 282 285 288 288 295 295 296 301 303 304
234 232 231 229 228 228 229 230 231 231 233 239 239 240 242 240 231 236 238 236 238 245 251 252 252 247 250 256 255 257 266 269 275 279 280 284 286 288 290 295 296 301 299
235 232 231 230 228 228 227 229 232 233 233 235 241 244 244 246 244 243 233 239 242 245 246 251 254 251 253 258 263 267 269 272 276 280 280 281 283 288 289 291 296 296 295
235 234 231 231 231 230 228 229 232 234 236 238 238 243 244 245 246 246 247 242 242 244 248 250 251 252 252 251 257 262 266 269 275 274 278 280 281 284 287 290 291 292 293
238 235 232 230 231 231 231 232 235 236 237 238 240 242 245 246 249 250 249 249 249 251 252 253 251 251 254 256 257 262 267 273 274 273 278 278 281 283 286 286 287 290 290
234 231 229 228 228 227 227 230 233 240 240 241 242 244 245 245 246 249 251 253 254 250 247 250 255 259 260 260 261 263 268 273 277 279 278 276 278 281 282 283 286 286 291
236 230 223 222 225 226 228 230 236 240 240 243 247 247 247 249 250 252 253 253 252 252 248 247 250 256 261 264 266 268 272 274 275 271 272 275 278 279 281 281 285 289 293
Height
10921 10923 10923 10926 10934 10940 10943 10946 10951 10952 10954 10958 10960 10962 10964 10966 10968 10969 10970 10970 10972 10975 10974 10975 10975 10976 10977 10978 10978 10977 10977 10977 10975 10976 10976 10976 10971 10966 10966 10967 10967 10966 10965
10912 10917 10917 10922 10924 10930 10936 10941 10944 10947 10949 10953 10955 10958 10959 10960 10964 10964 10965 10966 10968 10969 10971 10972 10972 10972 10972 10972 10971 10971 10969 10969 10968 10968 10968 10967 10966 10962 10959 10959 10960 10960 10960
10906 10910 10912 10915 10919 10923 10926 10932 10938 10939 10942 10944 10950 10952 10954 10956 10957 10958 10960 10961 10963 10963 10965 10967 10968 10967 10967 10968 10967 10968 10967 10964 10961 10960 10960 10958 10956 10954 10953 10951 10952 10953 10954
10902 10906 10909 10914 10914 10919 10921 10925 10929 10932 10935 10936 10939 10942 10946 10949 10950 10951 10954 10956 10958 10958 10959 10961 10963 10962 10962 10963 10962 10961 10959 10957 10954 10952 10951 10950 10948 10945 10944 10944 10944 10944 10945
10897 10900 10903 10908 10912 10913 10915 10916 10920 10923 10927 10930 10932 10933 10937 10940 10943 10946 10948 10950 10953 10954 10955 10955 10957 10957 10958 10956 10955 10953 10951 10947 10946 10944 10944 10944 10943 10938 10935 10932 10931 10931 10930
10889 10894 10898 10901 10906 10908 10910 10912 10914 10917 10920 10923 10927 10928 10931 10934 10938 10940 10943 10944 10947 10948 10949 10949 10951 10952 10953 10951 10950 10949 10945 10942 10942 10939 10938 10937 10935 10934 10930 10926 10925 10922 10920
10878 10885 10891 10894 10898 10901 10904 10905 10907 10909 10913 10915 10918 10920 10924 10927 10930 10933 10934 10936 10939 10940 10941 10943 10943 10944 10944 10944 10943 10943 10941 10938 10936 10936 10935 10933 10930 10927 10923 10918 10913 10909 10906
10873 10875 10880 10885 10889 10894 10896 10900 10903 10904 10907 10909 10910 10911 10914 10920 10922 10924 10925 10927 10929 10930 10931 10932 10933 10934 10934 10933 10934 10934 10934 10933 10932 10931 10929 10926 10922 10918 10914 10908 10902 10898 10892
10861 10863 10869 10875 10881 10888 10889 10891 10894 10898 10900 10903 10905 10906 10909 10912 10914 10915 10916 10917 10917 10918 10919 10921 10921 10921 10922 10923 10924 10925 10928 10928 10926 10925 10924 10922 10918 10913 10908 10900 10893 10885 10877
10845 10851 10859 10865 10873 10875 10881 10887 10892 10895 10898 10900 10902 10903 10904 10905 10905 10905 10905 10906 10907 10906 10906 10907 10908 10908 10911 10912 10914 10916 10919 10921 10920 10919 10917 10914 10910 10906 10899 10892 10885 10875 10863
10834 10843 10849 10856 10861 10866 10873 10882 10885 10887 10892 10895 10897 10898 10897 10895 10893 10892 10891 10890 10892 10893 10892 10893 10894 10896 10898 10901 10904 10906 10909 10911 10911 10909 10907 10906 10901 10897 10892 10885 10876 10866 10854
10820 10827 10833 10842 10846 10854 10867 10875 10883 10888 10889 10888 10888 10886 10884 10883 10880 10878 10876 10876 10877 10878 10879 10880 10882 10884 10887 10890 10894 10898 10901 10901 10901 10900 10901 10897 10892 10888 10883 10878 10868 10859 10847
10804 10811 10817 10824 10833 10841 10851 10862 10873 10883 10884 10881 10880 10878 10876 10874 10870 10866 10864 10866 10868 10868 10868 10869 10871 10872 10875 10878 10883 10887 10890 10890 10893 10892 10891 10886 10883 10880 10876 10870 10863 10854 10843
10790 10794 10801 10807 10816 10823 10833 10845 10855 10864 10871 10876 10876 10871 10868 10865 10861 10857 10857 10857 10858 10860 10859 10859 10857 10857 10861 10866 10871 10876 10878 10880 10881 10881 10878 10876 10872 10870 10866 10862 10856 10850 10841
10776 10780 10785 10792 10801 10806 10815 10825 10840 10847 10848 10832 10855 10857 10854 10853 10853 10849 10849 10849 10848 10851 10849 10847 10844 10845 10848 10854 10859 10864 10867 10869 10870 10869 10867 10865 10862 10859 10856 10853 10848 10842 10836
10760 10764 10770 10776 10782 10789 10799 10810 10819 10829 10824 10827 10822 10820 10825 10832 10835 10836 10836 10835 10836 10837 10840 10837 10836 10837 10839 10845 10850 10853 10857 10858 10858 10857 10857 10854 10852 10850 10846 10843 10838 10833 10829
10741 10747 10754 10760 10766 10772 10781 10792 10799 10805 10801 10801 10804 10806 10806 10814 10817 10822 10824 10822 10821 10827 10830 10829 10828 10830 10834 10837 10842 10844 10845 10846 10846 10846 10844 10842 10841 10839 10837 10833 10829 10824 10819
10721 10727 10735 10743 10749 10755 10762 10773 10780 10782 10779 10783 10787 10792 10796 10798 10804 10810 10812 10811 10810 10814 10819 10821 10823 10823 10827 10831 10832 10833 10834 10835 10835 10834 10833 10831 10829 10825 10824 10820 10816 10813 10808
10702 10708 10715 10724 10733 10740 10746 10755 10758 10763 10764 10770 10775 10781 10785 10789 10791 10796 10801 10800 10800 10803 10809 10812 10814 10816 10818 10821 10821 10822 10823 10824 10823 10823 10821 10818 10817 10815 10812 10808 10804 10801 10796
10680 10687 10695 10704 10713 10721 10729 10737 10741 10745 10746 10751 10757 10762 10770 10776 10778 10782 10784 10787 10790 10794 10800 10802 10804 10806 10808 10810 10812 10812 10811 10811 10811 10810 10808 10805 10803 10801 10799 10795 10791 10787 10782
10656 10665 10674 10684 10693 10701 10708 10717 10721 10726 10730 10730 10735 10742 10749 10757 10764 10768 10771 10774 10779 10784 10788 10790 10792 10794 10794 10796 10797 10798 10798 10798 10796 10795 10794 10791 10789 10787 10782 10779 10775 10771 10767
10635 10643 10652 10662 10673 10681 10690 10697 10701 10706 10714 10719 10719 10722 10731 10737 10742 10748 10755 10761 10765 10770 10775 10776 10781 10781 10780 10782 10784 10785 10784 10783 10780 10780 10779 10775 10773 10770 10766 10765 10760 10755 10749
10615 10624 10634 10644 10653 10662 10672 10680 10681 10688 10695 10699 10706 10706 10711 10720 10725 10731 10735 10742 10748 10755 10759 10760 10765 10764 10764 10768 10772 10770 10769 10768 10767 10767 10763 10761 10756 10752 10751 10748 10743 10741 10732
10599 10607 10617 10626 10633 10644 10655 10663 10670 10676 10680 10686 10692 10693 10696 10705 10707 10712 10717 10723 10729 10736 10740 10742 10742 10748 10752 10753 10752 10755 10753 10752 10750 10751 10748 10743 10740 10736 10734 10729 10722 10721 10717
10583 10589 10598 10607 10617 10628 10639 10646 10653 10658 10667 10674 10676 10676 10681 10686 10691 10693 10698 10707 10712 10715 10714 10719 10729 10733 10731 10733 10736 10737 10736 10735 10734 10733 10729 10726 10723 10719 10715 10710 10705 10701 10696
10576 10582 10589 10597 10606 10613 10623 10634 10640 10643 10649 10653 10657 10659 10665 10670 10674 10675 10684 10686 10688 10692 10699 10708 10712 10712 10715 10716 10718 10720 10719 10718 10717 10715 10711 10708 10705 10701 10696 10691 10686 10682 10675